This demonstration page uses our WeatherBlox Daily Observations layout. Learn more.

40.92945, -100.16068

Hourly Observations for December 30, 2015

Temp ( °F °C ) Dew Point ( °F °C ) Humidity (%) Winds ( mph kmh ) Pressure ( in mb ) Visibility ( mi km ) Precip ( " mm )
12:15 am 00:15 Cloudy 25 -4 21 -6 86 86 Calm 30.27 1025 7 11.265408 0 0
12:35 am 00:35 Cloudy 25 -4 23 -5 93 93 Calm 30.27 1025 10 16.09344 0 0
12:55 am 00:55 Cloudy 25 -4 23 -5 93 93 Calm 30.24 1024 10 16.09344 0 0
1:15 am 01:15 Cloudy 25 -4 23 -5 93 93 Calm 30.24 1024 10 16.09344 0 0
1:35 am 01:35 Cloudy 25 -4 23 -5 93 93 Calm 30.24 1024 10 16.09344 0 0
1:55 am 01:55 Cloudy 25 -4 23 -5 93 93 Calm 30.24 1024 10 16.09344 0 0
2:15 am 02:15 Cloudy 25 -4 23 -5 93 93 Calm 30.24 1024 10 16.09344 0 0
2:35 am 02:35 Cloudy 25 -4 23 -5 93 93 SSE 3 6 30.24 1024 10 16.09344 0 0
2:55 am 02:55 Cloudy 25 -4 23 -5 93 93 Calm 30.27 1025 10 16.09344 0 0
3:15 am 03:15 Cloudy 25 -4 23 -5 93 93 Calm 30.27 1025 10 16.09344 0 0
3:35 am 03:35 Cloudy 25 -4 23 -5 93 93 Calm 30.27 1025 10 16.09344 0 0
3:55 am 03:55 Cloudy 25 -4 23 -5 93 93 Calm 30.27 1025 10 16.09344 0 0
4:15 am 04:15 Cloudy 25 -4 23 -5 93 93 Calm 30.27 1025 10 16.09344 0 0
4:35 am 04:35 Cloudy 25 -4 21 -6 86 86 Calm 30.27 1025 10 16.09344 0 0
4:55 am 04:55 Cloudy with Light Snow 25 -4 21 -6 86 86 Calm 30.27 1025 7 11.265408 0 0
5:15 am 05:15 Cloudy with Light Snow 23 -5 21 -6 93 93 Calm 30.27 1025 7 11.265408 0 0
5:35 am 05:35 Cloudy with Mist and Fog 23 -5 21 -6 93 93 Calm 30.27 1025 2.5 4.02336 0 0
5:55 am 05:55 Cloudy with Mist and Fog 21 -6 19 -7 93 93 Calm 30.3 1026 0.75 1.207008 0 0
6:15 am 06:15 Cloudy with Mist and Fog 21 -6 19 -7 93 93 Calm 30.3 1026 2.5 4.02336 0 0
6:35 am 06:35 Cloudy with Mist and Fog 21 -6 19 -7 93 93 Calm 30.3 1026 4 6.437376 0 0
6:55 am 06:55 Cloudy 23 -5 21 -6 93 93 Calm 30.3 1026 7 11.265408 0 0
7:15 am 07:15 Cloudy 23 -5 21 -6 93 93 Calm 30.3 1026 10 16.09344 0 0
7:35 am 07:35 Cloudy 23 -5 21 -6 93 93 Calm 30.33 1027 10 16.09344 0 0
7:55 am 07:55 Cloudy 23 -5 21 -6 93 93 Calm 30.33 1027 10 16.09344 0 0
8:15 am 08:15 Cloudy 23 -5 21 -6 93 93 Calm 30.33 1027 10 16.09344 0 0
8:35 am 08:35 Cloudy 23 -5 21 -6 93 93 Calm 30.33 1027 10 16.09344 0 0
8:55 am 08:55 Cloudy 23 -5 21 -6 93 93 W 7 11 30.33 1027 10 16.09344 0 0
9:15 am 09:15 Mostly Cloudy 21 -6 19 -7 93 93 W 6 9 30.36 1028 10 16.09344 0 0
9:35 am 09:35 Partly Cloudy 19 -7 18 -8 93 93 NW 3 6 30.39 1029 7 11.265408 0 0
9:55 am 09:55 Partly Cloudy 21 -6 18 -8 86 86 NW 5 7 30.36 1028 10 16.09344 0 0
10:15 am 10:15 Partly Cloudy 21 -6 18 -8 86 86 WNW 5 7 30.36 1028 10 16.09344 0 0
10:35 am 10:35 Mostly Cloudy 23 -5 19 -7 86 86 WNW 5 7 30.36 1028 10 16.09344 0 0
10:55 am 10:55 Cloudy 23 -5 19 -7 86 86 W 3 6 30.36 1028 10 16.09344 0 0
11:15 am 11:15 Cloudy 23 -5 19 -7 86 86 W 5 7 30.36 1028 10 16.09344 0 0
11:35 am 11:35 Cloudy 23 -5 19 -7 86 86 W 3 6 30.36 1028 10 16.09344 0 0
11:55 am 11:55 Cloudy 25 -4 19 -7 80 80 WSW 3 6 30.36 1028 10 16.09344 0 0
12:15 pm 12:15 Cloudy 25 -4 19 -7 80 80 W 3 6 30.36 1028 10 16.09344 0 0
12:35 pm 12:35 Partly Cloudy 27 -3 19 -7 74 74 W 6 9 30.3 1026 10 16.09344 0 0
12:55 pm 12:55 Partly Cloudy 25 -4 21 -6 86 86 WNW 10 17 30.33 1027 10 16.09344 0 0
1:15 pm 13:15 Sunny 25 -4 19 -7 80 80 NW 9 15 30.33 1027 10 16.09344 0 0
1:35 pm 13:35 Sunny 25 -4 19 -7 80 80 NW 7 11 30.33 1027 7 11.265408 0 0
1:55 pm 13:55 Sunny 25 -4 19 -7 80 80 WNW 7 11 30.33 1027 7 11.265408 0 0
2:15 pm 14:15 Sunny 27 -3 19 -7 74 74 WNW 7 11 30.27 1025 7 11.265408 0 0
2:35 pm 14:35 Sunny 25 -4 19 -7 80 80 WNW 3 6 30.27 1025 10 16.09344 0 0
2:55 pm 14:55 Sunny 25 -4 19 -7 80 80 WNW 6 9 30.33 1027 10 16.09344 0 0
3:15 pm 15:15 Sunny 27 -3 19 -7 74 74 NW 7 11 30.27 1025 10 16.09344 0 0
3:35 pm 15:35 Sunny 27 -3 19 -7 74 74 NW 7 11 30.3 1026 10 16.09344 0 0
3:55 pm 15:55 Sunny 27 -3 19 -7 74 74 NW 5 7 30.3 1026 10 16.09344 0 0
4:15 pm 16:15 Sunny 27 -3 19 -7 74 74 NNW 5 7 30.3 1026 10 16.09344 0 0
4:35 pm 16:35 Sunny 25 -4 19 -7 80 80 Calm 30.33 1027 10 16.09344 0 0
4:55 pm 16:55 Sunny 25 -4 19 -7 80 80 Calm 30.33 1027 10 16.09344 0 0
5:15 pm 17:15 Sunny 25 -4 19 -7 80 80 Calm 30.33 1027 10 16.09344 0 0
5:35 pm 17:35 Clear 21 -6 18 -8 86 86 Calm 30.33 1027 10 16.09344 0 0
5:55 pm 17:55 Clear 21 -6 18 -8 86 86 Calm 30.33 1027 10 16.09344 0 0
6:15 pm 18:15 Clear 19 -7 16 -9 86 86 Calm 30.36 1028 10 16.09344 0 0
6:35 pm 18:35 Clear 19 -7 16 -9 86 86 Calm 30.39 1029 10 16.09344 0 0
6:55 pm 18:55 Clear 18 -8 16 -9 93 93 Calm 30.39 1029 7 11.265408 0 0
7:15 pm 19:15 Clear 18 -8 16 -9 93 93 Calm 30.39 1029 7 11.265408 0 0
7:35 pm 19:35 Clear 18 -8 16 -9 93 93 Calm 30.39 1029 7 11.265408 0 0
7:55 pm 19:55 Clear with Mist and Fog 16 -9 14 -10 93 93 SSE 3 6 30.45 1031 5 8.04672 0 0
8:15 pm 20:15 Clear with Mist and Fog 16 -9 14 -10 93 93 Calm 30.45 1031 5 8.04672 0 0
8:35 pm 20:35 Clear with Mist and Fog 18 -8 16 -9 93 93 Calm 30.42 1030 3 4.828032 0 0
8:55 pm 20:55 Clear with Mist and Fog 14 -10 12 -11 92 92 Calm 30.45 1031 2 3.218688 0 0
9:15 pm 21:15 Mostly Cloudy with Mist and Fog 12 -11 9 -13 85 85 Calm 30.45 1031 1.25 2.01168 0 0
9:35 pm 21:35 Clear with Mist and Fog 10 -12 9 -13 92 92 Calm 30.48 1032 5 8.04672 0 0
9:55 pm 21:55 Mostly Cloudy with Mist and Fog 9 -13 7 -14 92 92 Calm 30.48 1032 1.5 2.414016 0 0
10:15 pm 22:15 Mostly Cloudy with Freezing Fog 9 -13 7 -14 92 92 Calm 30.48 1032 0 0 0 0
10:35 pm 22:35 Mostly Cloudy with Freezing Fog 9 -13 7 -14 92 92 Calm 30.48 1032 0 0 0 0
10:55 pm 22:55 Mostly Cloudy with Freezing Fog 9 -13 7 -14 92 92 Calm 30.48 1032 0.25 0.402336 0 0
11:15 pm 23:15 Mostly Cloudy with Freezing Fog 9 -13 5 -15 85 85 Calm 30.48 1032 0 0 0 0
11:35 pm 23:35 Mostly Cloudy with Freezing Fog 9 -13 5 -15 85 85 Calm 30.48 1032 0.25 0.402336 0 0
11:55 pm 23:55 Mostly Cloudy with Mist and Fog 7 -14 3 -16 85 85 Calm 30.48 1032 0.75 1.207008 0 0

Powered by AerisWeather